Weather in Valuyki

Russia / Belgorod Oblast     50°12′40″N   38°05′59″E
temp.,
°C
wind,
m/s
gust,
m/s
humid.,
%
clouds,
%
prec.,
mm/h
press.,
hPa
HPBL,
m
15 may, sat
sat1500:00+16ssw369295 0.0 101091
03:00+14wsw228817 0.0 101111
06:00+14sw238396 0.0 101255
09:00+17sw3572100 0.0 1013287
12:00+22sw45545 0.0 10131254
15:00+23ssw585093 0.0 10132293
18:00+22sw35640 0.0 1013228
21:00+16wsw22750 0.0 101411
16 may, sun
sun1600:00+14ssw01775 0.0 101411
03:00+13nne00760 0.0 101411
06:00+15e1176100 0.0 101411
09:00+20ne2262100 0.0 1014353
12:00+24ene335529 0.0 10141244
15:00+25ene345199 0.0 10121750
18:00+23ene477299 0.4 1011281
21:00+18ene338318 0.4 101139
17 may, mon
mon1700:00+15ene4107797 0.0 1010147
03:00+15e4127564 0.0 1008200
06:00+15e413765 0.0 1008217
09:00+21ese6165947 0.0 1008745
12:00+25se815545 0.0 10071331
15:00+25se6105422 0.0 10071400
18:00+23se51065100 0.0 1006431
21:00+18se3128298 0.0 1007228
18 may, tue
tue1800:00+17sse339025 0.0 100750
03:00+15s349328 0.0 100768
06:00+14s399350 0.0 1008366
09:00+18s687499 0.0 1009720
12:00+19ssw687294 0.0 1009806
15:00+22s6863100 1.1 10081360
18:00+18sse357826 2.1 100791
21:00+16se498697 2.8 1008151
19 may, wed
wed1900:00+14sse31091100 0.0 1007210
03:00+14s41195100 0.1 1007343
06:00+14ssw61195100 2.4 1006553
09:00+14ssw7119361 5.5 1007745
12:00+16sw8117781 2.1 10081338
15:00+17w596698 2.2 10101616
18:00+16wsw477760 0.8 1011789
21:00+12sw11870 1.0 101210